This is the latest recevied weather packets stored in our database for station/object IK2ILW-4. If no packets are shown the sender has not sent any weather packets the latest 10 day(s).
| Time | Temp. | Humidity | Pressure | Rain* | Wind** | Luminosity | Snow |
|---|---|---|---|---|---|---|---|
| 1787853470 | 20.56° C | 79% | 1023.8 hPa | 0 mm | - | 0 W/m² | - |
| 1787853168 | 20.56° C | 79% | 1023.8 hPa | 0 mm | - | 0 W/m² | - |
| 1787852874 | 20.56° C | 79% | 1023.8 hPa | 0 mm | - | 0 W/m² | - |
| 1787852569 | 20.56° C | 79% | 1024.1 hPa | 0 mm | - | 7 W/m² | - |
| 1787852262 | 20.56° C | 78% | 1024.1 hPa | 0 mm | - | 9 W/m² | - |
| 1787851973 | 20.56° C | 78% | 1024.1 hPa | 0 mm | - | 9 W/m² | - |
| 1787851672 | 21.11° C | 77% | 1023.9 hPa | 0 mm | - | 12 W/m² | - |
| 1787851366 | 21.11° C | 77% | 1023.9 hPa | 0 mm | - | 18 W/m² | - |
| 1787851073 | 21.11° C | 77% | 1023.9 hPa | 0 mm | - | 25 W/m² | - |
| 1787850771 | 21.11° C | 76% | 1024 hPa | 0 mm | - | 33 W/m² | - |
| 1787850463 | 21.11° C | 76% | 1024 hPa | 0 mm | - | 44 W/m² | - |
| 1787850173 | 21.11° C | 77% | 1024 hPa | 0 mm | - | 53 W/m² | - |
| 1787849870 | 21.11° C | 76% | 1023.9 hPa | 0 mm | - | 65 W/m² | - |
| 1787849566 | 21.67° C | 74% | 1023.9 hPa | 0 mm | - | 84 W/m² | - |
| 1787849275 | 22.22° C | 73% | 1023.9 hPa | 0 mm | - | 102 W/m² | - |
| 1787848965 | 21.67° C | 75% | 1024 hPa | 0 mm | - | 113 W/m² | - |
| 1787848662 | 22.22° C | 73% | 1024 hPa | 0 mm | - | 123 W/m² | - |
| 1787848372 | 21.67° C | 75% | 1024 hPa | 0 mm | - | 132 W/m² | - |
| 1787848067 | 22.22° C | 73% | 1024.1 hPa | 0 mm | - | 148 W/m² | - |
| 1787847761 | 22.22° C | 72% | 1024.1 hPa | 0 mm | - | 162 W/m² | - |
| 1787847462 | 22.22° C | 72% | 1024.1 hPa | 0 mm | - | 181 W/m² | - |
| 1787847160 | 21.67° C | 74% | 1024.1 hPa | 0 mm | - | 183 W/m² | - |
| 1787846860 | 21.67° C | 73% | 1024.1 hPa | 0 mm | - | 190 W/m² | - |
| 1787846570 | 21.67° C | 72% | 1024.1 hPa | 0 mm | - | 146 W/m² | - |
| 1787846268 | 21.67° C | 72% | 1023.9 hPa | 0 mm | - | 218 W/m² | - |
* Rain since midnight (hover to see other rain measurements)
** Current wind speed in m/s (hover to see current wind gust speed)